Weather in Yangiqurgan

Uzbekistan     41°11′14″N   71°43′39″E
temp.,
°C
wind,
m/s
gust,
m/s
humid.,
%
clouds,
%
prec.,
mm/h
press.,
hPa
HPBL,
m
22 october, fri
fri2223:00+11e5759100 0.7 1019551
02:00+8s3483100 1.4 1021479
05:00+7se2386100 5.2 1023451
08:00+5ssw5785100 1.5 1028588
11:00+5se3480100 1.9 1031828
14:00+6sse3476100 1.1 1032762
17:00+5ne4476100 1.4 1033265
20:00+5nne237389 0.0 103477
23 october, sat
sat2323:00+5n2369100 0.0 103551
02:00+4n347133 0.0 103568
05:00+3n34660 0.0 103550
08:00+5n34530 0.0 1034128
11:00+11ne23310 0.0 10311067
14:00+13ne23240 0.0 10281311
17:00+11nne22330 0.0 102725
20:00+8n33480 0.0 102941
24 october, sun
sun2423:00+7n33470 0.0 102833
02:00+6nne33410 0.0 102617
05:00+6nne32400 0.0 102515
08:00+8nne22350 0.0 102464
11:00+13ese12220 0.0 1021708
14:00+16se12170 0.0 10181041
17:00+13s11240 0.0 101710
20:00+11n33340 0.0 101819
25 october, mon
mon2523:00+10n33340 0.0 101824
02:00+9nne33270 0.0 101715
05:00+9n33260 0.0 101714
08:00+11nne22260 0.0 101838
11:00+16se11160 0.0 1017607
14:00+18s11150 0.0 1015986
17:00+15ssw22220 0.0 101511
20:00+13n22270 0.0 101614
26 october, tue
tue2623:00+11n33390 0.0 101719
02:00+11n33350 0.0 101715
05:00+10nne22341 0.0 101712
08:00+12nne22315 0.0 101933
11:00+16se112294 0.0 1018638
14:00+19s211965 0.0 10171148
17:00+15ssw222626 0.0 101711
20:00+13n2229100 0.0 101911